This is the latest recevied weather packets stored in our database for station/object WB0OCV. If no packets are shown the sender has not sent any weather packets the latest 10 day(s).
| Time | Temp. | Humidity | Pressure | Rain* | Wind** | Luminosity | Snow |
|---|---|---|---|---|---|---|---|
| 1777583815 | 11.67° C | 96% | 1007.6 hPa | 0 mm | - | 44 W/m² | - |
| 1777583511 | 11.67° C | 96% | 1007.5 hPa | 0 mm | - | 50 W/m² | - |
| 1777583205 | 11.67° C | 96% | 1007.4 hPa | 0 mm | - | 62 W/m² | - |
| 1777582900 | 11.67° C | 96% | 1007.4 hPa | 0 mm | - | 55 W/m² | - |
| 1777582599 | 11.67° C | 96% | 1007.1 hPa | 0 mm | - | 57 W/m² | - |
| 1777582293 | 11.67° C | 96% | 1007.5 hPa | 0 mm | - | 56 W/m² | - |
| 1777581991 | 11.67° C | 96% | 1007.5 hPa | 0 mm | - | 61 W/m² | - |
| 1777581686 | 11.67° C | 96% | 1007.4 hPa | 0 mm | - | 67 W/m² | - |
| 1777581381 | 11.67° C | 96% | 1007.3 hPa | 0 mm | - | 61 W/m² | - |
| 1777581081 | 11.67° C | 96% | 1007.5 hPa | 0 mm | - | 65 W/m² | - |
| 1777580779 | 11.11° C | 96% | 1007.6 hPa | 0 mm | - | 64 W/m² | - |
| 1777580476 | 11.67° C | 96% | 1007.5 hPa | 0 mm | - | 83 W/m² | - |
| 1777580171 | 11.11° C | 96% | 1007.6 hPa | 0 mm | - | 83 W/m² | - |
| 1777579869 | 11.11° C | 96% | 1007.7 hPa | 0 mm | - | 89 W/m² | - |
| 1777579569 | 11.67° C | 96% | 1007.6 hPa | 0 mm | - | 83 W/m² | - |
| 1777579268 | 11.67° C | 97% | 1007.5 hPa | 0 mm | - | 116 W/m² | - |
| 1777578964 | 11.67° C | 96% | 1007.9 hPa | 0 mm | - | 148 W/m² | - |
| 1777578659 | 11.67° C | 97% | 1007.9 hPa | 1.27 mm | - | 94 W/m² | - |
| 1777578358 | 11.11° C | 97% | 1007.7 hPa | 1.27 mm | - | 110 W/m² | - |
| 1777578054 | 11.11° C | 97% | 1007.9 hPa | 0 mm | - | 122 W/m² | - |
| 1777577749 | 11.11° C | 96% | 1008.2 hPa | 0 mm | - | 73 W/m² | - |
| 1777577446 | 11.11° C | 96% | 1007.9 hPa | 1.78 mm | - | 91 W/m² | - |
| 1777577144 | 11.11° C | 95% | 1007.7 hPa | 1.78 mm | - | 74 W/m² | - |
| 1777576840 | 11.11° C | 95% | 1008 hPa | 0 mm | - | 91 W/m² | - |
| 1777576539 | 11.11° C | 94% | 1008.2 hPa | 0 mm | - | 72 W/m² | - |
* Rain latest hour (hover to see other rain measurements)
** Current wind speed in m/s (hover to see current wind gust speed)